Eagle, AK

11:23 PM AKDT on September 25, 2016 (GMT -0800)
Eagle

Weather History for PAEG - December, 2013

Change the Weather History Date:

Sunday, December 22, 2013

  Actual Average (PABN) Record (PABN)
Temperature  
Mean Temperature 10 °F -  
Max Temperature 12 °F 5 °F 44 °F (1999)
Min Temperature 8 °F 0 °F -29 °F (2012)
Degree Days  
Heating Degree Days 55    
Moisture  
Dew Point 2 °F    
Average Humidity 73    
Maximum Humidity 80    
Minimum Humidity 56    
Precipitation  
Precipitation 0.06 in - - ()
Sea Level Pressure  
Sea Level Pressure 29.61 in    
Wind  
Wind Speed 7 mph (ESE)    
Max Wind Speed 14 mph    
Max Gust Speed 25 mph    
Visibility 5 miles    
Events Snow    
Averages and records for this station are not official NWS values.
T = Trace of Precipitation, MM = Missing Value Source: NWS Daily Summary

Daily Weather History Graph

Daily Weather History Graph

Search for Another Location

Airport or City:

Trip Planner

Search our weather history database for the weather conditions in past years. The results will help you decide how hot, cold, wet, or windy it might be!

Date:

Astronomy

Dec. 22, 2013 Rise Set
Actual Time 10:31 AM AKST 2:15 PM AKST
Civil Twilight 9:06 AM AKST 3:40 PM AKST
Nautical Twilight 7:54 AM AKST 4:52 PM AKST
Astronomical Twilight 6:53 AM AKST 5:53 PM AKST
Moon 9:55 PM AKST (12/22) 11:21 AM AKST (12/22)
Length of Visible Light 6h 34m
Length of Day
3h 44m
Waning Gibbous, 75% of the Moon is Illuminated
Dec 22
Waning Gibbous
Dec 25
Last Quarter
Jan 1
New
Jan 7
First Quarter
Jan 15
Full

Hourly Weather History & Observations

Time (AKST) Temp. Windchill Dew Point Humidity Pressure Visibility Wind Dir Wind Speed Gust Speed Precip Events Conditions
12:53 AM 9.0 °F -5.9 °F -4.0 °F 56% 29.79 in 10.0 mi SE 11.5 mph 20.7 mph N/A   Overcast
1:53 AM 8.1 °F -6.2 °F -2.9 °F 61% 29.76 in 10.0 mi SE 10.4 mph 19.6 mph N/A   Overcast
3:53 AM 9.0 °F -3.2 °F -2.9 °F 59% 29.72 in 10.0 mi SE 8.1 mph 16.1 mph N/A   Overcast
4:53 AM 9.0 °F -3.2 °F -2.0 °F 61% 29.68 in 10.0 mi East 8.1 mph 17.3 mph N/A   Overcast
5:53 AM 8.1 °F -8.4 °F -2.0 °F 64% 29.67 in 10.0 mi ESE 13.8 mph 23.0 mph N/A   Overcast
6:53 AM 9.0 °F -6.6 °F -0.9 °F 64% 29.65 in 10.0 mi ESE 12.7 mph 19.6 mph N/A   Overcast
7:53 AM 9.0 °F -5.9 °F -0.9 °F 64% 29.63 in 10.0 mi ESE 11.5 mph 21.9 mph N/A   Overcast
8:53 AM 9.0 °F -5.1 °F -0.9 °F 64% 29.60 in 10.0 mi East 10.4 mph 25.3 mph N/A   Overcast
9:53 AM 9.0 °F -6.6 °F -0.0 °F 67% 29.58 in 10.0 mi ESE 12.7 mph 23.0 mph N/A   Overcast
10:53 AM 10.0 °F -3.7 °F -0.0 °F 64% 29.56 in 10.0 mi SE 10.4 mph 19.6 mph N/A   Overcast
11:53 AM 10.0 °F -4.5 °F -0.0 °F 64% 29.55 in 10.0 mi SE 11.5 mph 20.7 mph 0.00 in   Overcast
12:53 PM 10.9 °F -2.6 °F 1.9 °F 67% 29.54 in 8.0 mi SE 10.4 mph 23.0 mph N/A   Overcast
1:53 PM 12.0 °F 0.5 °F 1.9 °F 64% 29.54 in 10.0 mi ESE 8.1 mph - N/A   Overcast
2:53 PM 10.9 °F 0.2 °F 1.9 °F 67% 29.55 in 10.0 mi East 6.9 mph - 0.00 in   Overcast
3:53 PM 10.0 °F -1.9 °F 3.0 °F 73% 29.56 in 10.0 mi East 8.1 mph - 0.00 in   Overcast
4:30 PM 10.0 °F 1.8 °F 3.0 °F 73% 29.52 in 2.5 mi Variable 4.6 mph - 0.00 in Snow Light Snow
4:41 PM 10.0 °F - 3.0 °F 73% 29.52 in 1.8 mi Calm Calm - 0.00 in Snow Light Snow
4:46 PM 10.0 °F 3.6 °F 3.0 °F 73% 29.52 in 2.0 mi ENE 3.5 mph - 0.01 in Snow Light Snow
4:53 PM 9.0 °F 2.4 °F 3.0 °F 77% 29.59 in 2.0 mi ENE 3.5 mph - 0.01 in Snow Light Snow
5:19 PM 10.0 °F - 3.9 °F 76% 29.54 in 3.0 mi Calm Calm - 0.00 in Snow Light Snow
5:53 PM 9.0 °F - 3.0 °F 77% 29.61 in 4.0 mi Calm Calm - 0.00 in Snow Light Snow
6:22 PM 9.0 °F - 3.9 °F 80% 29.56 in 2.5 mi Calm Calm - 0.00 in Snow Light Snow
6:32 PM 9.0 °F - 3.9 °F 80% 29.56 in 1.2 mi Calm Calm - 0.00 in Snow Light Snow
6:53 PM 9.0 °F - 3.9 °F 80% 29.63 in 1.2 mi Calm Calm - 0.01 in Snow Light Snow
7:53 PM 9.0 °F - 3.9 °F 80% 29.64 in 1.5 mi Calm Calm - 0.02 in Snow Light Snow
8:05 PM 9.0 °F - 3.9 °F 80% 29.58 in 2.5 mi Calm Calm - 0.00 in Snow Light Snow
8:20 PM 9.0 °F - 3.0 °F 77% 29.58 in 2.0 mi Calm Calm - 0.00 in Snow Light Snow
8:39 PM 8.1 °F - 3.0 °F 80% 29.58 in 3.0 mi Calm Calm - 0.00 in Snow Light Snow
8:45 PM 8.1 °F - 3.0 °F 80% 29.59 in 2.5 mi Calm Calm - 0.00 in Snow Light Snow
8:53 PM 9.0 °F - 3.0 °F 77% 29.65 in 2.0 mi Calm Calm - 0.00 in Snow Light Snow
9:07 PM 9.0 °F - 3.9 °F 80% 29.59 in 1.8 mi Calm Calm - 0.00 in Snow Light Snow
9:26 PM 9.0 °F - 3.9 °F 80% 29.60 in 2.0 mi Calm Calm - 0.00 in Snow Light Snow
9:39 PM 9.0 °F - 3.9 °F 80% 29.60 in 1.8 mi Calm Calm - 0.01 in Snow Light Snow
9:53 PM 9.0 °F - 3.9 °F 80% 29.66 in 2.5 mi Calm Calm - 0.01 in Snow Light Snow
9:58 PM 9.0 °F - 3.9 °F 80% 29.60 in 3.0 mi Calm Calm - 0.00 in Snow Light Snow
10:46 PM 9.0 °F - 3.9 °F 80% 29.61 in 2.0 mi Calm Calm - 0.00 in Snow Light Snow
10:53 PM 9.0 °F - 3.9 °F 80% 29.68 in 1.8 mi Calm Calm - 0.00 in Snow Light Snow
11:15 PM 9.0 °F - 3.9 °F 80% 29.62 in 2.0 mi Calm Calm - 0.00 in Snow Light Snow
11:25 PM 9.0 °F - 3.9 °F 80% 29.63 in 4.0 mi Calm Calm - 0.00 in Snow Light Snow
11:53 PM 10.0 °F - 5.0 °F 80% 29.69 in 3.0 mi Calm Calm - 0.01 in Snow Light Snow